When you browse on this site, cookies collect data to enhance your experience and personalize the content and advertising you see.
Visit our Privacy Policy to learn more. By continuing to use the site, you agree to this use of cookies and data.
  • In Hungary
  • List of Countries
  • For 7 days
  • Water Temperature
  • Weather Map
  • News
  • Weather Widgets
  • user-avatar
    Login

    Hourly Weather Mbabane

    Today, 15 November, Friday

    Time Temperature Precipitation Wind Pressure Humidity
    00:00 +14°C° 0 mm 1 mps 644 mmHg 95%
    01:00 +13°C° 0 mm 1 mps 644 mmHg 95%
    02:00 +13°C° 0 mm 1 mps 643 mmHg 95%
    03:00 +12°C° 0 mm 1 mps 643 mmHg 93%
    04:00 +12°C° 0 mm 1 mps 642 mmHg 90%
    05:00 +10°C° 0 mm 2 mps 642 mmHg 88%
    06:00 +14°C° 0 mm 2 mps 643 mmHg 80%
    07:00 +16°C° 0 mm 2 mps 644 mmHg 71%
    08:00 +18°C° 0 mm 3 mps 645 mmHg 62%
    09:00 +19°C° 0 mm 3 mps 645 mmHg 57%
    10:00 +21°C° 0 mm 4 mps 645 mmHg 51%
    11:00 +22°C° 0 mm 5 mps 645 mmHg 45%
    12:00 +23°C° 0 mm 5 mps 645 mmHg 44%
    13:00 +23°C° 0 mm 5 mps 644 mmHg 42%
    14:00 +25°C° 0 mm 5 mps 644 mmHg 41%
    15:00 +23°C° 0 mm 4 mps 644 mmHg 45%
    16:00 +22°C° 0 mm 4 mps 643 mmHg 49%
    17:00 +21°C° 0 mm 4 mps 643 mmHg 52%
    18:00 +19°C° 0.1 mm 3 mps 643 mmHg 61%
    19:00 +17°C° 0.1 mm 2 mps 643 mmHg 70%
    20:00 +15°C° 0.1 mm 1 mps 643 mmHg 79%
    21:00 +15°C° 0 mm 1 mps 643 mmHg 81%
    22:00 +14°C° 0 mm 1 mps 643 mmHg 83%
    23:00 +14°C° 0 mm 1 mps 643 mmHg 85%

    Tomorrow, 16 November, Saturday

    Time Temperature Precipitation Wind Pressure Humidity
    00:00 +13°C° 0 mm 1 mps 643 mmHg 85%
    01:00 +13°C° 0 mm 2 mps 642 mmHg 86%
    02:00 +13°C° 0 mm 2 mps 642 mmHg 86%
    03:00 +12°C° 0 mm 2 mps 642 mmHg 86%
    04:00 +12°C° 0 mm 1 mps 642 mmHg 87%
    05:00 +12°C° 0 mm 1 mps 641 mmHg 87%
    06:00 +14°C° 0 mm 1 mps 643 mmHg 76%
    07:00 +17°C° 0 mm 2 mps 644 mmHg 65%
    08:00 +19°C° 0 mm 2 mps 645 mmHg 53%
    09:00 +21°C° 0 mm 2 mps 645 mmHg 49%
    10:00 +24°C° 0 mm 2 mps 645 mmHg 44%
    11:00 +25°C° 0 mm 2 mps 645 mmHg 40%
    12:00 +26°C° 0 mm 3 mps 644 mmHg 40%
    13:00 +26°C° 0 mm 3 mps 644 mmHg 40%
    14:00 +26°C° 0 mm 3 mps 644 mmHg 41%
    15:00 +25°C° 0 mm 4 mps 643 mmHg 45%
    16:00 +23°C° 0 mm 4 mps 643 mmHg 49%
    17:00 +22°C° 0 mm 4 mps 642 mmHg 54%
    18:00 +19°C° 0 mm 3 mps 642 mmHg 64%
    19:00 +17°C° 0 mm 2 mps 642 mmHg 74%
    20:00 +15°C° 0 mm 2 mps 642 mmHg 84%
    21:00 +14°C° 0 mm 1 mps 642 mmHg 85%
    22:00 +14°C° 0 mm 1 mps 643 mmHg 87%
    23:00 +12°C° 0 mm 0 mps 643 mmHg 89%

    Day after tomorrow, 17 November, Sunday

    Time Temperature Precipitation Wind Pressure Humidity
    00:00 +13°C° 0 mm 1 mps 642 mmHg 89%
    01:00 +13°C° 0 mm 1 mps 642 mmHg 90%
    02:00 +13°C° 0 mm 1 mps 641 mmHg 90%
    03:00 +13°C° 0 mm 1 mps 641 mmHg 92%
    04:00 +12°C° 0 mm 1 mps 641 mmHg 94%
    05:00 +12°C° 0 mm 1 mps 641 mmHg 95%
    06:00 +15°C° 0 mm 1 mps 642 mmHg 85%
    07:00 +18°C° 0 mm 1 mps 642 mmHg 74%
    08:00 +20°C° 0 mm 2 mps 643 mmHg 64%
    09:00 +23°C° 0 mm 2 mps 643 mmHg 55%
    10:00 +26°C° 0 mm 2 mps 643 mmHg 46%
    11:00 +29°C° 0 mm 3 mps 644 mmHg 36%
    12:00 +30°C° 0 mm 3 mps 643 mmHg 33%
    13:00 +31°C° 0 mm 3 mps 643 mmHg 30%
    14:00 +34°C° 0 mm 3 mps 642 mmHg 26%
    15:00 +31°C° 0 mm 3 mps 642 mmHg 31%
    16:00 +30°C° 0 mm 2 mps 641 mmHg 36%
    17:00 +29°C° 0 mm 2 mps 641 mmHg 41%
    18:00 +26°C° 0 mm 2 mps 641 mmHg 46%
    19:00 +24°C° 0 mm 1 mps 641 mmHg 52%
    20:00 +22°C° 0 mm 1 mps 641 mmHg 58%
    21:00 +21°C° 0.1 mm 1 mps 642 mmHg 69%
    22:00 +18°C° 0.1 mm 2 mps 642 mmHg 80%
    23:00 +17°C° 0.1 mm 2 mps 642 mmHg 91%

    18 November, Monday

    Time Temperature Precipitation Wind Pressure Humidity
    00:00 +16°C° 0.2 mm 2 mps 643 mmHg 92%
    01:00 +16°C° 0.2 mm 2 mps 643 mmHg 93%
    02:00 +16°C° 0.2 mm 2 mps 643 mmHg 95%
    03:00 +15°C° 0.1 mm 2 mps 643 mmHg 94%
    04:00 +15°C° 0.1 mm 1 mps 644 mmHg 93%
    05:00 +14°C° 0.1 mm 1 mps 644 mmHg 92%
    06:00 +14°C° 0 mm 1 mps 644 mmHg 89%
    07:00 +15°C° 0 mm 1 mps 645 mmHg 85%
    08:00 +15°C° 0 mm 2 mps 645 mmHg 81%
    09:00 +16°C° 0 mm 2 mps 645 mmHg 77%
    10:00 +17°C° 0 mm 2 mps 646 mmHg 73%
    11:00 +18°C° 0 mm 2 mps 646 mmHg 68%
    12:00 +18°C° 0 mm 3 mps 646 mmHg 68%
    13:00 +19°C° 0 mm 3 mps 645 mmHg 68%
    14:00 +19°C° 0 mm 3 mps 645 mmHg 68%
    15:00 +18°C° 0.2 mm 3 mps 644 mmHg 75%
    16:00 +17°C° 0.2 mm 2 mps 644 mmHg 81%
    17:00 +16°C° 0.2 mm 2 mps 644 mmHg 87%
    18:00 +15°C° 0 mm 2 mps 644 mmHg 89%
    19:00 +15°C° 0 mm 2 mps 644 mmHg 91%
    20:00 +15°C° 0 mm 2 mps 644 mmHg 93%
    21:00 +14°C° 0 mm 2 mps 644 mmHg 95%
    22:00 +14°C° 0 mm 2 mps 644 mmHg 96%
    23:00 +14°C° 0 mm 1 mps 644 mmHg 97%

    19 November, Tuesday

    Time Temperature Precipitation Wind Pressure Humidity
    00:00 +14°C° 0 mm 1 mps 644 mmHg 96%
    01:00 +14°C° 0 mm 1 mps 643 mmHg 96%
    02:00 +15°C° 0 mm 1 mps 643 mmHg 95%
    03:00 +15°C° 0 mm 1 mps 643 mmHg 95%
    04:00 +15°C° 0 mm 1 mps 644 mmHg 94%
    05:00 +15°C° 0 mm 1 mps 644 mmHg 94%
    06:00 +16°C° 0.2 mm 2 mps 644 mmHg 90%
    07:00 +17°C° 0.2 mm 2 mps 644 mmHg 87%
    08:00 +19°C° 0.2 mm 2 mps 645 mmHg 83%
    09:00 +21°C° 0 mm 3 mps 645 mmHg 70%
    10:00 +25°C° 0 mm 3 mps 646 mmHg 58%
    11:00 +28°C° 0 mm 3 mps 646 mmHg 45%
    12:00 +26°C° 1.3 mm 3 mps 645 mmHg 54%
    13:00 +24°C° 1.3 mm 2 mps 643 mmHg 63%
    14:00 +20°C° 1.3 mm 2 mps 642 mmHg 72%
    15:00 +21°C° 0.6 mm 2 mps 642 mmHg 72%
    16:00 +21°C° 0.6 mm 2 mps 642 mmHg 72%
    17:00 +21°C° 0.6 mm 2 mps 642 mmHg 73%
    18:00 +20°C° 1 mm 2 mps 643 mmHg 80%
    19:00 +20°C° 1 mm 1 mps 643 mmHg 86%
    20:00 +16°C° 1 mm 0 mps 644 mmHg 93%
    21:00 +16°C° 0.6 mm 0 mps 644 mmHg 94%
    22:00 +16°C° 0.6 mm 0 mps 645 mmHg 94%
    23:00 +16°C° 0.6 mm 0 mps 645 mmHg 95%

    20 November, Wednesday

    Time Temperature Precipitation Wind Pressure Humidity
    00:00 +16°C° 0.8 mm 0 mps 645 mmHg 96%
    01:00 +16°C° 0.8 mm 0 mps 644 mmHg 97%
    02:00 +18°C° 0.8 mm 1 mps 644 mmHg 98%
    03:00 +16°C° 0 mm 0 mps 644 mmHg 98%
    04:00 +16°C° 0 mm 0 mps 644 mmHg 98%
    05:00 +16°C° 0 mm 0 mps 644 mmHg 97%
    06:00 +18°C° 0.1 mm 1 mps 644 mmHg 95%
    07:00 +19°C° 0.1 mm 1 mps 644 mmHg 92%
    08:00 +19°C° 0.1 mm 1 mps 645 mmHg 90%
    09:00 +19°C° 1 mm 1 mps 645 mmHg 90%
    10:00 +20°C° 1 mm 1 mps 644 mmHg 90%
    11:00 +20°C° 1 mm 1 mps 644 mmHg 90%
    12:00 +19°C° 1.4 mm 1 mps 644 mmHg 90%
    13:00 +19°C° 1.4 mm 1 mps 643 mmHg 90%
    14:00 +19°C° 1.4 mm 1 mps 642 mmHg 90%
    15:00 +20°C° 0.2 mm 1 mps 642 mmHg 87%
    16:00 +21°C° 0.2 mm 1 mps 642 mmHg 84%
    17:00 +21°C° 0.2 mm 1 mps 642 mmHg 81%
    18:00 +20°C° 0.4 mm 1 mps 643 mmHg 87%
    19:00 +19°C° 0.4 mm 1 mps 643 mmHg 92%
    20:00 +18°C° 0.4 mm 1 mps 643 mmHg 98%
    21:00 +18°C° 0.1 mm 1 mps 643 mmHg 98%
    22:00 +18°C° 0.1 mm 1 mps 644 mmHg 98%
    23:00 +18°C° 0.1 mm 1 mps 644 mmHg 98%
    Show more